Montego Bay, Jamaica

12:06 PM EST on September 26, 2017 (GMT -0500)
Sangster International

Weather History for MKJS - December, 2012

Change the Weather History Date:

Thursday, December 13, 2012

  Actual Average Record
Temperature  
Mean Temperature 79 °F -  
Max Temperature 84 °F 82 °F 89 °F (1997)
Min Temperature 74 °F 74 °F 72 °F (2015)
Cooling Degree Days 14    
Growing Degree Days 29 (Base 50)    
Moisture  
Dew Point 73 °F    
Average Humidity 79    
Maximum Humidity 89    
Minimum Humidity 68    
Precipitation  
Precipitation 0.00 in - - ()
Sea Level Pressure  
Sea Level Pressure 29.97 in    
Wind  
Wind Speed 5 mph ()    
Max Wind Speed 14 mph    
Max Gust Speed -    
Visibility 8.2 miles    
Events      
Averages and records for this station are not official NWS values.
T = Trace of Precipitation, MM = Missing Value Source: Averaged Metar Reports

Daily Weather History Graph

Daily Weather History Graph

Search for Another Location

Airport or City:

Trip Planner

Search our weather history database for the weather conditions in past years. The results will help you decide how hot, cold, wet, or windy it might be!

Date:

Astronomy

Dec. 13, 2012 Rise Set
Actual Time 6:35 AM EST 5:37 PM EST
Civil Twilight 6:11 AM EST 6:00 PM EST
Nautical Twilight 5:44 AM EST 6:28 PM EST
Astronomical Twilight 5:17 AM EST 6:55 PM EST
Moon 6:44 AM EST (12/13) 6:13 PM EST (12/13)
Length of Visible Light 11h 49m
Length of Day
11h 01m
New Moon, 0% of the Moon is Illuminated
Dec 13
New Moon
Dec 20
First Quarter
Dec 28
Full
Jan 4
Last Quarter
Jan 11
New

Hourly Weather History & Observations

Time (EST) Temp. Heat Index Dew Point Humidity Pressure Visibility Wind Dir Wind Speed Gust Speed Precip Events Conditions
12:00 AM 75.2 °F - 71.6 °F 89% 30.01 in 6.2 mi SW 1.2 mph - N/A   Partly Cloudy
1:00 AM 76 °F - 72 °F 84% 30.00 in 12 mi South 1.2 mph - -   Scattered Clouds
1:00 AM 75.2 °F - 71.6 °F 89% 29.98 in 6.2 mi South 1.2 mph - N/A   Partly Cloudy
2:00 AM 75.2 °F - 71.6 °F 89% 30.01 in 6.2 mi ESE 3.5 mph - N/A   Partly Cloudy
3:00 AM 75.2 °F - 71.6 °F 89% 29.95 in 6.2 mi SE 4.6 mph - N/A   Partly Cloudy
4:00 AM 77 °F - 72 °F 79% 29.96 in 12 mi SE 4.6 mph - -   Scattered Clouds
4:00 AM 77.0 °F - 71.6 °F 83% 29.95 in 6.2 mi SE 4.6 mph - N/A   Partly Cloudy
5:00 AM 75.2 °F - 71.6 °F 89% 29.95 in 6.2 mi SSE 1.2 mph - N/A   Partly Cloudy
6:00 AM 75.2 °F - 71.6 °F 89% 29.98 in 6.2 mi East 3.5 mph - N/A   Partly Cloudy
7:00 AM 76 °F - 71 °F 80% 29.98 in 16 mi SE 4.6 mph - -   Scattered Clouds
7:00 AM 75.2 °F - 71.6 °F 89% 29.98 in 6.2 mi SE 4.6 mph - N/A   Partly Cloudy
8:00 AM 80.6 °F 85.4 °F 73.4 °F 79% 29.98 in 6.2 mi SE 4.6 mph - N/A   Partly Cloudy
9:00 AM 82.4 °F 88.2 °F 73.4 °F 74% 29.98 in 6.2 mi SE 6.9 mph - N/A   Partly Cloudy
10:00 AM 83 °F - 74 °F 69% 30.01 in 16 mi NE 10.4 mph - -   Scattered Clouds
10:00 AM 82.4 °F 89.5 °F 75.2 °F 79% 30.01 in 6.2 mi NE 10.4 mph - N/A   Partly Cloudy
11:00 AM 82.4 °F 88.2 °F 73.4 °F 74% 30.01 in 6.2 mi NE 9.2 mph - N/A   Partly Cloudy
12:00 PM 84.2 °F 92.3 °F 75.2 °F 74% 29.98 in 6.2 mi NE 9.2 mph - N/A   Partly Cloudy
1:00 PM 84 °F - 75 °F 68% 29.97 in 16 mi NE 8.1 mph - -   Scattered Clouds
1:00 PM 84.2 °F 92.3 °F 75.2 °F 74% 29.95 in 6.2 mi NE 8.1 mph - N/A   Partly Cloudy
2:00 PM 84.2 °F 92.3 °F 75.2 °F 74% 29.95 in 6.2 mi NE 8.1 mph - N/A   Partly Cloudy
3:00 PM 84.2 °F 92.3 °F 75.2 °F 74% 29.92 in 6.2 mi ENE 9.2 mph - N/A   Partly Cloudy
4:00 PM 84 °F - 75 °F 68% 29.93 in 16 mi NNE 11.5 mph - -   Scattered Clouds
4:00 PM 84.2 °F 92.3 °F 75.2 °F 74% 29.92 in 6.2 mi NNE 11.5 mph - N/A   Partly Cloudy
6:00 PM 84.2 °F 92.3 °F 75.2 °F 74% 29.92 in 6.2 mi NE 10.4 mph - N/A   Partly Cloudy
8:00 PM 84.2 °F 92.3 °F 75.2 °F 74% 29.98 in 6.2 mi ENE 13.8 mph - N/A   Partly Cloudy
9:00 PM 82.4 °F 89.5 °F 75.2 °F 79% 29.98 in 6.2 mi NE 13.8 mph - N/A   Partly Cloudy
10:00 PM 79 °F - 72 °F 75% 30.00 in 12 mi East 8.1 mph - -   Partly Cloudy
10:00 PM 78.8 °F - 73.4 °F 83% 29.98 in 6.2 mi East 8.1 mph - N/A   Partly Cloudy
11:00 PM 78.8 °F - 71.6 °F 78% 29.98 in 6.2 mi East 6.9 mph - N/A   Partly Cloudy